AirNav   Duncan Aviation - Near you to keep you flying
 
 1219 users online  

KCHN Wauchula Municipal Airport
Wauchula, Florida, USA

GOING TO WAUCHULA?


FAA INFORMATION EFFECTIVE 19 MAY 2022

Location

FAA Identifier: CHN
Lat/Long: 27-30-53.7000N 081-52-49.7000W
27-30.895000N 081-52.828333W
27.5149167,-81.8804722
(estimated)
Elevation: 107.8 ft. / 32.9 m (surveyed)
Variation: 04W (2000)
From city: 5 miles SW of WAUCHULA, FL
Time zone: UTC -4 (UTC -5 during Standard Time)
Zip code: 33873

Airport Operations

Airport use: Open to the public
Activation date: 11/1983
Control tower: no
ARTCC: MIAMI CENTER
FSS: SAINT PETERSBURG FLIGHT SERVICE STATION
NOTAMs facility: PIE (NOTAM-D service available)
Attendance: UNATTND
Wind indicator: lighted
Segmented circle: yes
Lights: ACTVT REIL RWY 18 & 36; MIRL RWY 18/36 - CTAF.
Beacon: white-green (lighted land airport)
Operates sunset to sunrise.

Airport Communications

CTAF: 122.9
WX AWOS-3 at AVO (19 nm E): 118.725 (863-453-4223)
  • APCH/DEP SVC PRVDD BY MIAMI ARTCC ON FREQS 134.55/257.7 (AVON PARK RCAG).

Nearby radio navigation aids

VOR radial/distance  VOR name  Freq  Var
LALr165/29.2LAKELAND VORTAC116.0001E
PGDr015/(36.4)PUNTA GORDA VOR110.2006W
SRQr085/36.9SARASOTA VOR/DME117.0005W

Airport Services

Fuel available: 100LL
100LL:FUEL 24 HR CREDIT CARD SVC AVBL.
Parking: tiedowns
Airframe service: MINOR
Powerplant service: MINOR
Bottled oxygen: NONE
Bulk oxygen: NONE

Runway Information

Runway 18/36

Dimensions: 4005 x 75 ft. / 1221 x 23 m
Surface: asphalt, in excellent condition
Weight bearing capacity: 
PCN 7 /F/B/Y/T
Single wheel: 24.0
Double wheel: 39.0
Runway edge lights: medium intensity
RUNWAY 18  RUNWAY 36
Latitude: 27-31.224823N27-30.563918N
Longitude: 081-52.828178W081-52.827343W
Elevation: 99.3 ft.103.3 ft.
Traffic pattern: leftleft
Runway heading: 184 magnetic, 180 true004 magnetic, 360 true
Markings: nonprecision, in good conditionnonprecision, in good condition
Visual slope indicator: 4-light PAPI on left (4.00 degrees glide path)4-light PAPI on left (3.00 degrees glide path)
Runway end identifier lights: yesyes
Touchdown point: yes, no lightsyes, no lights
Obstructions: 18 ft. trees, 600 ft. from runway, 130 ft. left of centerline, 22:1 slope to clear5 ft. brush, 205 ft. from runway, 225 ft. right of centerline, 1:1 slope to clear

Airport Ownership and Management from official FAA records

Ownership: Publicly-owned
Owner: CITY OF WAUCHULA
126 S 7TH AVE.
WAUCHULA, FL 33873
Phone 863-773-3131
CTC PERSON: OLIVIA MINSHEW
Manager: WARD GRIMES
1202 MAURICE SONNY CLAVEL RD.
WAUCHULA, FL 33873
Phone (863) 773-3115
AIRPORT PHYSICAL ADDRESS: 1202 MAURICE SONNY CLAVEL ROAD.

Airport Operational Statistics

Aircraft based on the field: 24
Single engine airplanes: 18
Multi engine airplanes: 2
Helicopters: 4
    
Aircraft operations: avg 22/day *
59% transient general aviation
41% local general aviation
* for 12-month period ending 25 July 2018

Additional Remarks

FOR CD CTC MIAMI ARTCC AT 305-716-1731.

Instrument Procedures

NOTE: All procedures below are presented as PDF files. If you need a reader for these files, you should download the free Adobe Reader.

NOT FOR NAVIGATION. Please procure official charts for flight.
FAA instrument procedures published for use from 19 May 2022 at 0901Z to 16 June 2022 at 0900Z.

 
IAPs - Instrument Approach Procedures
RNAV (GPS) RWY 18   download (235KB)
RNAV (GPS) RWY 36   download (224KB)
NOTE: Special Take-Off Minimums/Departure Procedures apply   download (162KB)

Other nearby airports with instrument procedures:

KAVO - Avon Park Executive Airport (19 nm E)
X06 - Arcadia Municipal Airport (19 nm S)
KBOW - Bartow Executive Airport (26 nm N)
X07 - Lake Wales Municipal Airport (27 nm NE)
KSEF - Sebring Regional Airport (29 nm E)
 
Loc | Ops | Rwys | IFR | FBO | Links
Com | Nav | Svcs | Stats | Notes


 
Area around KCHN (Wauchula Municipal Airport)
 
Road maps at: MapQuest Bing Google
 
Aerial photo
WARNING: Photo may not be current or correct
Aerial photo of KCHN (Wauchula Municipal Airport)
Photo by Joshua C. Smith
Photo taken 16-Feb-2015
looking east.

Do you have a better or more recent aerial photo of Wauchula Municipal Airport that you would like to share? If so, please send us your photo.

 
Sectional chart

 
Airport diagram
CAUTION: Diagram may not be current
Diagram of KCHN (Wauchula Municipal Airport)
 
Airport distance calculator
Flying to Wauchula Municipal Airport? Find the distance to fly.

From to KCHN

Sunrise and sunset
Times for 27-May-2022
 Local
(UTC-4)
 Zulu
(UTC)
Morning civil twilight06:0910:09
Sunrise06:3510:35
Sunset20:1500:15
Evening civil twilight20:4100:41

Current date and time
Zulu (UTC)  27-May-2022 13:30:43
Local (UTC-4)  27-May-2022 09:30:43
 
METAR
KBOW 
26nm N 
271315Z AUTO 19008KT 10SM CLR 27/22 A3005 RMK AO2
KX07 
27nm NE 
271315Z AUTO 20009KT 10SM CLR 26/23 A3006 RMK A01
KLAL 
28nm N 
271250Z 18005KT 10SM SKC 26/23 A3004
KSEF 
29nm E 
271315Z AUTO 17007KT 10SM CLR 27/22 A3005 RMK AO2 LTG DSNT NW T02740216
KAGR 
30nm E 
271258Z AUTO 19007KT 10SM CLR 26/22 A3003 RMK AO2 LTG DSNT E SLP170 T02620221 $
KPCM 
33nm NW 
271315Z AUTO 20007KT 10SM CLR 29/23 A3006 RMK AO2
KGIF 
34nm N 
271253Z AUTO 19007KT 10SM CLR 26/21 A3005 RMK AO2 SLP172 T02610211
KPGD 
36nm S 
271253Z 17008KT 10SM CLR 27/22 A3004 RMK AO2 SLP172 T02720222
KSRQ 
37nm W 
271253Z 14007KT 10SM CLR 28/23 A3001 RMK AO2 SLP162 T02780228
KTPF 
39nm NW 
271315Z AUTO 19009KT 10SM CLR A3004 RMK AO2
TAF
KLAL 
28nm N 
271131Z 2712/2812 18006KT P6SM SCT025 BKN250 FM271500 22008KT P6SM VCSH SCT030 BKN250 FM271800 25010KT P6SM VCTS BKN035CB BKN100 FM280100 21003KT P6SM SCT030 BKN250 FM280600 VRB03KT P6SM VCSH BKN030 BKN250
NOTAMs
Click for the latest NOTAMs
NOTAMs are issued by the DoD/FAA and will open in a separate window not controlled by AirNav.

 

 
 

FBO, Fuel Providers, and Aircraft Ground Support

  
 Business Name 
 
 Contact 
 
 Services / Description 
 
Fuel Prices
 
Comments
  
Wauchula Municipal Airport 122.90
863-773-3115
[web site]
[email]
Airport management, Aviation fuel, Aircraft parking (ramp or tiedown), Hangar leasing / sales, Pilots lounge / snooze room, Public telephone, Computerized weather, ...
More info and photos of Wauchula Municipal Airport
Phillips 66
100LL
SS $5.65 
GUARANTEED
 
   2 read write
SS=Self service
Update Fuel Prices
 

Would you like to see your business listed on this page?

 If your business provides an interesting product or service to pilots, flight crews, aircraft, or users of the Wauchula Municipal Airport, you should consider listing it here.  To start the listing process, click on the button below
 
Add a business
 

Other Pages about Wauchula Municipal Airport

www.cityofwauchula.com/wauchula-municipal-airport
 
Update a link
 
Copyright © AirNav, LLC. All rights reserved. Privacy Policy  Contact